Date,TemperatureHighF,TemperatureAvgF,TemperatureLowF,DewpointHighF,DewpointAvgF,DewpointLowF,HumidityHigh,HumidityAvg,HumidityLow,PressureMaxIn,PressureMinIn,WindSpeedMaxMPH,WindSpeedAvgMPH,GustSpeedMaxMPH,PrecipitationSumIn
2013-5-1,79.5,68.7,57.4,22.0,15.7,11.0,18,13,9,30.16,29.96,9,3,17,0.00
2013-5-2,88.1,72.9,60.8,40.0,23.0,9.0,30,16,9,30.23,30.13,6,1,13,0.00
2013-5-3,89.4,73.4,57.1,43.0,33.4,25.0,41,25,11,30.14,29.87,6,1,13,0.00
2013-5-4,84.7,71.5,58.2,42.0,30.0,18.0,40,23,9,29.87,29.59,6,2,14,0.00
2013-5-5,62.3,54.1,44.7,48.0,45.0,34.0,93,73,40,29.84,29.60,6,1,8,0.00
2013-5-6,56.2,51.9,48.5,49.0,47.0,46.0,92,83,74,29.98,29.84,1,0,2,0.00
2013-5-7,70.6,57.2,47.2,50.0,47.4,44.0,90,71,48,30.05,29.98,7,1,8,0.00
2013-5-8,70.1,59.5,51.1,55.0,51.2,48.0,90,75,56,30.12,30.03,4,0,5,0.00
2013-5-9,79.2,64.7,50.6,57.0,52.5,48.0,92,67,40,30.15,30.06,5,1,8,0.00
2013-5-10,88.3,71.6,55.2,60.0,53.9,47.0,84,56,34,30.18,30.10,5,1,8,0.00
2013-5-11,90.3,74.7,61.7,60.0,54.1,49.0,74,51,25,30.16,30.10,5,0,7,0.00
2013-5-12,89.2,73.1,57.6,59.0,49.3,42.0,71,46,21,30.16,30.06,4,1,8,0.00
2013-5-13,89.6,71.7,56.7,55.0,48.5,41.0,70,46,26,30.09,29.98,7,1,10,0.00
2013-5-14,90.2,69.2,57.7,55.0,46.3,30.0,76,48,16,29.99,29.92,4,1,8,0.00
2013-5-15,79.8,64.2,51.8,49.0,44.6,39.0,80,52,31,30.02,29.95,5,1,8,0.00
2013-5-16,70.9,59.5,48.6,50.0,44.8,42.0,77,60,38,30.01,29.92,4,1,12,0.00
2013-5-17,72.5,57.3,43.3,47.0,41.5,37.0,90,60,28,30.05,29.95,6,1,10,0.00
2013-5-18,78.7,61.6,47.0,48.0,44.1,36.0,88,57,24,30.13,30.05,5,2,10,0.00
2013-5-19,82.3,66.7,52.2,44.0,35.1,18.0,72,37,13,30.17,30.05,9,1,12,0.00
2013-5-20,88.0,72.7,60.6,44.0,36.6,24.0,41,29,10,30.09,29.94,6,1,9,0.00
2013-5-21,65.8,58.5,44.6,40.0,35.6,29.0,66,44,28,29.98,29.90,6,1,13,0.00
2013-5-22,63.7,49.1,36.4,38.0,31.0,24.0,72,52,26,30.01,29.89,6,2,10,0.00
2013-5-23,70.7,54.2,40.1,42.0,37.5,33.0,84,57,25,30.01,29.88,6,1,10,0.00
2013-5-24,74.8,58.8,43.6,42.0,38.8,25.0,84,52,18,30.00,29.93,4,1,8,0.00
2013-5-25,75.6,60.4,46.7,46.0,42.8,38.0,85,56,31,30.01,29.93,8,1,9,0.00
2013-5-26,73.0,59.6,48.3,49.0,43.4,38.0,89,59,29,30.09,30.00,10,2,14,0.00
2013-5-27,65.2,55.0,48.2,53.0,47.9,38.0,94,77,57,30.09,29.99,6,1,9,0.01
2013-5-28,75.5,62.1,50.8,54.0,50.6,46.0,93,69,37,30.00,29.92,6,1,7,0.00
2013-5-29,77.4,63.4,50.9,51.0,45.9,39.0,87,56,28,29.96,29.91,6,2,9,0.00
2013-5-30,82.0,64.1,49.1,47.0,42.1,28.0,86,51,15,30.02,29.94,6,1,8,0.00
2013-5-31,90.6,74.4,54.7,49.0,41.2,26.0,73,37,10,30.06,29.98,6,1,11,0.00